EW7909 Weather Reports


time (UTC)temp
C
wind
direction
speed
KPH
gust
KPH
rain 1hr
cm
rain 24hr
cm
rain mn
cm
humidity
%
barometer
mb
20260507191519 13 82 1.6 4.8 0.00 0.23 0.23 68 1011.1
20260507190115 14 81 4.8 9.7 0.00 0.23 0.23 68 1011.1
20260507184539 14 71 6.4 14.5 0.00 0.23 0.23 67 1011.0
20260507183125 15 58 9.7 16.1 0.00 0.23 0.23 66 1011.0
20260507181533 15 62 6.4 11.3 0.00 0.23 0.23 66 1010.9
20260507180115 15 40 6.4 16.1 0.00 0.23 0.23 64 1010.8
20260507174549 15 64 8.0 14.5 0.00 0.23 0.23 62 1010.9
20260507173127 16 26 4.8 12.9 0.00 0.23 0.23 62 1010.8
20260507171602 16 59 4.8 14.5 0.00 0.23 0.23 62 1010.8
20260507170133 16 297 1.6 3.2 0.00 0.23 0.23 59 1010.7
20260507164607 16 278 3.2 6.4 0.00 0.23 0.23 62 1010.6
20260507163017 16 281 8.0 12.9 0.00 0.23 0.23 59 1010.7
20260507161614 16 266 3.2 9.7 0.00 0.23 0.23 60 1010.7
20260507160033 17 275 6.4 12.9 0.00 0.23 0.23 57 1010.8
20260507154615 17 279 6.4 12.9 0.00 0.23 0.23 53 1010.8
20260507153034 17 255 4.8 14.5 0.00 0.23 0.23 51 1010.8
20260507151627 17 271 9.7 16.1 0.00 0.23 0.23 55 1010.7
20260507150048 17 311 8.0 12.9 0.00 0.23 0.23 55 1010.9
20260507144630 17 306 3.2 14.5 0.00 0.23 0.23 57 1011.0
20260507143100 17 250 16.1 22.5 0.00 0.23 0.23 53 1011.0
20260507141508 16 240 3.2 16.1 0.00 0.23 0.23 55 1010.9
20260507134530 16 278 9.7 19.3 0.00 0.23 0.23 56 1011.2
20260507133114 16 290 6.4 14.5 0.00 0.23 0.23 57 1011.3
20260507131534 16 247 3.2 17.7 0.00 0.23 0.23 55 1011.5
20260507130013 16 290 6.4 19.3 0.00 0.23 0.23 57 1011.4
20260507124601 16 284 9.7 14.5 0.00 0.23 0.23 59 1011.4
20260507123024 15 336 6.4 16.1 0.00 0.23 0.23 61 1011.6
20260507121612 15 302 4.8 17.7 0.00 0.23 0.23 59 1011.5
20260507120034 16 33 4.8 17.7 0.00 0.23 0.23 64 1011.6
20260507114628 16 355 3.2 9.7 0.00 0.23 0.23 64 1011.5
20260507113046 15 319 4.8 14.5 0.00 0.23 0.23 62 1011.7
20260507111639 15 306 4.8 14.5 0.00 0.23 0.23 62 1011.7
20260507110105 15 219 9.7 19.3 0.00 0.23 0.23 66 1011.8
20260507104516 14 280 6.4 16.1 0.00 0.51 0.23 65 1011.9
20260507103109 14 284 1.6 14.5 0.00 0.51 0.23 67 1012.0
20260507101531 14 295 4.8 12.9 0.00 0.51 0.23 67 1012.1
20260507100112 14 238 6.4 17.7 0.00 0.51 0.23 68 1012.2
20260507094527 13 317 3.2 9.7 0.00 0.97 0.23 68 1012.3
20260507093118 13 248 1.6 11.3 0.00 0.97 0.23 65 1012.3
20260507091542 13 216 0.0 9.7 0.00 0.97 0.23 63 1012.4
20260507090130 13 282 4.8 11.3 0.03 0.97 0.23 60 1012.4
20260507084544 12 215 0.0 12.9 0.05 1.09 0.23 62 1012.4
20260507083004 12 252 6.4 12.9 0.05 1.09 0.23 33 1012.4
20260507081554 11 238 1.6 8.0 0.05 1.09 0.23 1 1012.5
20260507080001 11 245 6.4 16.1 0.03 1.07 0.23 1 1012.5
20260507074552 11 246 6.4 11.3 0.00 1.04 0.20 1 1012.5
20260507073019 10 242 3.2 8.0 0.00 1.04 0.20 1 1012.4
20260507071613 10 240 4.8 11.3 0.00 1.04 0.20 1 1012.4
20260507070039 10 225 6.4 11.3 0.00 1.04 0.20 1 1012.3
20260507064621 10 225 0.0 0.0 0.00 1.04 0.20 1 1012.2
20260507063037 10 225 0.0 4.8 0.05 1.04 0.20 1 1012.2
20260507061533 10 225 0.0 0.0 0.05 1.04 0.20 1 1011.9
20260507060027 9 225 0.0 0.0 0.05 1.04 0.20 1 1011.8
20260507054523 9 225 0.0 0.0 0.05 1.04 0.20 1 1011.8
20260507053019 8 225 0.0 0.0 0.00 0.99 0.15 1 1011.7
20260507051515 8 225 0.0 0.0 0.00 0.99 0.15 1 1011.4
20260507050010 8 225 0.0 0.0 0.00 0.99 0.15 1 1011.3
20260507044506 8 225 0.0 0.0 0.00 0.99 0.15 1 1011.1
20260507043001 8 225 0.0 0.0 0.00 0.99 0.15 1 1010.9
20260507041558 8 225 0.0 0.0 0.00 0.99 0.15 1 1010.9
20260507040052 8 225 0.0 0.0 0.00 0.99 0.15 1 1010.8
20260507034557 8 225 0.0 0.0 0.00 0.99 0.15 1 1010.8
20260507033046 8 225 0.0 0.0 0.00 0.99 0.15 1 1010.7
20260507031540 8 225 0.0 0.0 0.00 0.99 0.15 1 1010.7
20260507030036 8 225 0.0 1.6 0.00 0.99 0.15 1 1010.6
20260507024547 8 225 0.0 0.0 0.00 0.99 0.15 1 1010.6
20260507023027 8 225 0.0 0.0 0.00 0.99 0.15 1 1010.6
20260507021523 8 227 0.0 0.0 0.00 0.99 0.15 1 1010.5
20260507020018 8 227 0.0 0.0 0.00 0.99 0.15 1 1010.4
20260507014528 8 227 0.0 0.0 0.00 0.99 0.15 1 1010.4
20260507013009 8 227 0.0 0.0 0.00 0.99 0.15 1 1010.2
20260507011505 8 227 0.0 0.0 0.00 0.99 0.15 1 1010.2
20260507010115 8 227 0.0 0.0 0.00 0.99 0.15 1 1010.3
20260507004558 8 227 0.0 0.0 0.00 0.99 0.15 1 1010.3
20260507003053 8 227 0.0 0.0 0.00 0.99 0.15 1 1010.3
20260507001555 8 227 0.0 0.0 0.05 0.99 0.15 1 1010.2
20260507000043 8 227 0.0 0.0 0.05 0.99 0.15 1 1010.2
20260506234539 8 227 0.0 0.0 0.08 0.99 0.15 1 1010.2
20260506233038 8 227 0.0 0.0 0.13 0.99 0.15 1 1010.2
20260506231533 8 227 0.0 0.0 0.10 0.97 0.13 1 1010.2
20260506230028 8 227 0.0 0.0 0.10 0.94 0.10 1 1010.2
20260506224522 8 227 0.0 0.0 0.08 0.91 0.08 1 1010.2
20260506223017 8 227 0.0 0.0 0.05 0.89 0.05 1 1010.2
20260506221514 8 227 0.0 0.0 0.03 0.86 0.03 1 1010.1
20260506220009 8 227 0.0 0.0 0.00 0.84 0.00 1 1010.0
20260506214504 8 227 0.0 4.8 0.00 0.84 0.84 1 1009.8
20260506213100 8 234 0.0 0.0 0.00 0.84 0.84 1 1009.8
20260506211559 8 234 0.0 0.0 0.00 0.84 0.84 1 1009.7
20260506210052 8 234 0.0 0.0 0.00 0.84 0.84 1 1009.6
20260506204548 8 234 0.0 0.0 0.00 0.84 0.84 1 1009.4
20260506203042 8 234 0.0 0.0 0.00 0.84 0.84 1 1009.2
20260506201538 9 234 0.0 0.0 0.00 0.84 0.84 4 1008.9
20260506200034 9 234 0.0 1.6 0.00 0.84 0.84 13 1008.7
20260506194535 10 234 0.0 0.0 0.00 0.84 0.84 21 1008.5
20260506193130 10 234 0.0 0.0 0.00 0.84 0.84 29 1008.3